Vertical_Velocity
-1 -0 -1 -1 1 -1 1 -0 -2 -2 1 -0 -1 -2 0 1 2 -0 0 0 0 2 1 1 -0 1 -1 -1 -2 -1 -1 -1 -0
1 0 1 -0 -1 0 -1 -0 1 1 -1 1 -0 1 -1 1 -0 -0 1 -1 -1 1 1 0 1 -1 -1 -1 -1 -1 -1 -1 -1
1 0 0 1 1 -0 -1 -0 -0 -0 1 1 1 -0 1 -0 -1 -1 0 -0 -2 -2 -2 -2 -2 0 1 1 -1 -0 -2 -1 0
0 -0 0 1 1 -0 0 -0 -1 1 0 -1 -1 1 1 1 -2 -0 -2 -0 -0 -1 -1 -1 -0 -1 -1 -0 -0 -1 -0 -1 -1
1 -0 -0 0 -0 1 2 1 1 0 1 1 -1 0 -1 -1 1 0 1 1 -0 -0 -0 -0 -0 -1 -1 -1 -2 -0 -0 -0 -1
2 2 2 1 0 -0 -1 -0 -1 -0 1 2 -0 0 -1 1 2 0 -1 0 -1 -3 -3 -3 -3 -2 -1 -0 -2 -2 -1 -0 1
2 0 1 -0 -0 -0 1 -0 -0 0 -1 1 1 -1 0 -1 -1 -1 -0 1 1 -0 -3 -4 -1 -2 -2 -1 -0 -2 -1 -0 0
2 1 2 1 0 1 1 1 2 1 0 -1 -1 -1 0 -0 -1 -1 -1 -2 -0 -1 0 0 -1 -0 -0 -1 -1 1 0 0 -1
-0 -0 2 1 1 1 1 2 1 1 0 0 0 -1 1 -3 -1 -2 -2 -2 -4 -1 -1 -1 -2 0 0 -1 -2 -2 -1 -1 -0
-2 -1 2 3 3 1 1 2 1 -0 -2 1 -2 -2 -1 -1 -2 -1 -0 -1 1 -2 -1 -2 0 -1 -1 -1 -1 -0 -2 -1 -0
-1 -1 0 2 2 2 -0 0 -0 -0 -1 0 1 -2 -1 0 -2 -1 -3 -2 -4 -2 1 1 -0 0 -1 -1 -1 -1 0 -1 -2
0 1 -2 -0 2 1 1 2 -1 0 -1 0 -2 -2 -1 -2 -2 -1 -1 -2 -1 -3 -3 -2 0 3 1 1 2 0 -1 0 0
-1 -2 1 -1 0 2 2 1 -0 1 1 -1 -1 0 -0 -0 -3 -2 -2 -1 -1 -2 -2 -3 -1 -0 -3 1 -2 -1 -1 -0 0
2 1 0 3 -1 0 3 3 2 -4 3 -2 -2 -1 -2 -1 -2 -3 0 -3 1 -1 -1 -5 -2 -2 0 -0 0 0 -1 -2 1
3 2 1 2 1 1 1 -0 4 -3 3 2 -1 -1 1 -1 -0 -1 -2 -2 -1 -2 -1 -1 -2 -1 -2 -0 -0 1 -2 -3 -0
5 3 2 -2 1 -2 -0 2 1 -0 -2 0 -1 1 -1 -2 -1 1 -1 -1 -1 -1 -1 -2 -1 0 -2 -1 0 -1 -1 -2 -4
2 0 -2 -1 4 2 4 -1 1 -1 0 -1 -1 1 -2 -3 -2 -2 -2 -0 -2 0 -2 -2 -1 0 -1 0 1 2 2 -0 -2
-2 -1 1 1 2 3 -2 -1 1 1 -8 -2 -1 -3 -1 0 3 0 -1 1 -3 -2 -1 -2 -2 -3 -2 -1 -0 1 2 1 1
4 3 0 -0 2 6 -1 -2 -2 2 -1 1 -2 -3 -3 -8 -3 0 -2 2 3 1 2 1 1 -1 -3 -2 -1 -0 -1 2 1
-0 0 2 1 -0 0 2 3 3 -1 0 -1 -2 1 -1 0 1 0 -1 1 -0 1 2 -1 1 -2 -3 -0 -1 -1 0 -0 4
Height
5878 5878 5880 5882 5883 5883 5885 5885 5885 5886 5886 5886 5885 5885 5884 5883 5882 5881 5880 5879 5878 5876 5874 5872 5870 5869 5867 5864 5863 5861 5859 5857 5855
5876 5877 5878 5880 5882 5882 5883 5884 5884 5884 5885 5885 5884 5884 5883 5882 5881 5881 5880 5879 5878 5877 5875 5872 5871 5869 5866 5865 5863 5861 5859 5857 5855
5875 5875 5876 5878 5880 5880 5881 5882 5882 5883 5883 5883 5883 5882 5882 5881 5880 5880 5879 5877 5877 5875 5874 5872 5870 5869 5867 5865 5863 5861 5859 5857 5855
5872 5872 5873 5875 5877 5878 5879 5881 5881 5881 5880 5881 5881 5881 5881 5881 5880 5879 5878 5877 5876 5876 5875 5873 5871 5868 5866 5865 5862 5860 5858 5857 5855
5869 5870 5870 5872 5874 5875 5877 5877 5878 5879 5879 5879 5879 5879 5880 5880 5879 5879 5877 5876 5875 5874 5874 5872 5870 5868 5866 5864 5862 5860 5858 5856 5854
5865 5866 5867 5869 5871 5872 5874 5875 5876 5877 5877 5877 5878 5878 5878 5878 5878 5878 5876 5875 5873 5872 5871 5870 5870 5868 5865 5863 5861 5859 5857 5855 5854
5860 5862 5864 5866 5867 5869 5871 5872 5873 5874 5876 5876 5877 5876 5877 5877 5876 5876 5876 5874 5872 5871 5869 5868 5867 5866 5865 5863 5861 5859 5857 5854 5853
5856 5858 5861 5863 5864 5867 5869 5870 5871 5872 5873 5874 5874 5875 5876 5875 5875 5875 5875 5874 5872 5870 5869 5868 5866 5865 5863 5862 5861 5859 5857 5855 5852
5852 5854 5857 5860 5862 5864 5866 5868 5869 5870 5871 5872 5873 5874 5874 5874 5873 5874 5873 5873 5871 5870 5868 5866 5865 5863 5862 5860 5859 5857 5856 5854 5852
5848 5851 5854 5857 5859 5861 5863 5865 5867 5868 5869 5870 5871 5872 5872 5872 5872 5871 5871 5870 5870 5868 5867 5866 5863 5861 5860 5858 5855 5854 5853 5851 5850
5842 5846 5849 5853 5855 5858 5860 5862 5863 5865 5866 5867 5868 5869 5870 5870 5870 5870 5869 5869 5868 5865 5865 5863 5861 5859 5857 5856 5854 5852 5850 5849 5847
5837 5841 5844 5848 5852 5854 5856 5858 5860 5861 5862 5863 5864 5865 5866 5867 5866 5866 5866 5865 5865 5863 5861 5859 5858 5857 5854 5852 5850 5848 5846 5845 5843
5830 5836 5839 5842 5847 5850 5852 5854 5856 5858 5859 5860 5861 5861 5861 5862 5862 5862 5861 5861 5861 5859 5859 5856 5854 5852 5851 5848 5846 5844 5842 5840 5838
5823 5829 5834 5837 5840 5845 5848 5850 5851 5854 5854 5855 5856 5857 5857 5857 5857 5857 5856 5856 5856 5855 5853 5852 5850 5849 5846 5844 5842 5840 5837 5834 5833
5817 5822 5827 5832 5835 5838 5842 5845 5846 5848 5849 5850 5851 5852 5852 5851 5851 5850 5850 5849 5849 5848 5847 5845 5843 5843 5841 5838 5836 5835 5832 5830 5828
5810 5815 5820 5825 5829 5832 5835 5839 5841 5842 5844 5845 5846 5846 5846 5845 5845 5845 5844 5843 5842 5841 5840 5839 5837 5835 5834 5832 5829 5828 5825 5823 5820
5804 5810 5814 5818 5822 5826 5829 5831 5833 5835 5837 5839 5840 5840 5841 5840 5839 5838 5837 5836 5835 5834 5834 5832 5830 5828 5827 5824 5822 5820 5819 5816 5813
5798 5803 5807 5811 5815 5819 5821 5824 5826 5828 5829 5829 5832 5831 5833 5832 5831 5831 5830 5829 5828 5827 5826 5824 5822 5820 5819 5816 5813 5811 5810 5808 5806
5790 5794 5799 5803 5807 5811 5814 5815 5817 5819 5820 5822 5822 5822 5824 5824 5824 5823 5823 5821 5821 5820 5818 5816 5813 5811 5809 5807 5804 5802 5800 5799 5797
5780 5785 5789 5794 5798 5801 5804 5807 5808 5809 5811 5812 5814 5814 5814 5814 5814 5814 5814 5813 5812 5811 5809 5807 5805 5802 5799 5798 5795 5793 5791 5789 5787